iso_date,epoch_date,Year,Hour,Min,DOY,POS_DOY,Lat,Lon,BP,Ts,Ta,has_bp,has_ts,has_ta,BuoyID,Buoy_Type,Buoy_Owner,Logistics,Hemisphere
2013-09-04T16:59:31Z,1378313971,2013,17,0,247.708,247.708,75.6868,-141.4274,1008.67,-999.00,-9.12,yes,no,yes,3000250713490,IMB,CRREL,unknown,North
2013-09-04T18:00:00Z,1378317600,2013,18,0,247.75,247.75,75.6874,-141.4393,1008.63,-999.00,-8.31,yes,no,yes,3000250713490,IMB,CRREL,unknown,North
2013-09-04T19:00:28Z,1378321229,2013,19,0,247.792,247.792,75.6876,-141.4491,1008.56,-999.00,-8.35,yes,no,yes,3000250713490,IMB,CRREL,unknown,North
2013-09-04T19:59:31Z,1378324771,2013,20,0,247.833,247.833,75.6873,-141.4573,1008.49,-999.00,-7.66,yes,no,yes,3000250713490,IMB,CRREL,unknown,North
2013-09-04T21:00:00Z,1378328400,2013,21,0,247.875,247.875,75.6864,-141.4664,1008.49,-999.00,-6.35,yes,no,yes,3000250713490,IMB,CRREL,unknown,North
2013-09-04T22:00:28Z,1378332029,2013,22,0,247.917,247.917,75.685,-141.4764,1008.58,-999.00,-5.69,yes,no,yes,3000250713490,IMB,CRREL,unknown,North
2013-09-04T22:59:31Z,1378335571,2013,23,0,247.958,247.958,75.6836,-141.4869,1008.5,-999.00,-5.06,yes,no,yes,3000250713490,IMB,CRREL,unknown,North
2013-09-05T00:00:00Z,1378339200,2013,0,0,248.0,248.0,75.6818,-141.4977,1008.84,-999.00,-4.51,yes,no,yes,3000250713490,IMB,CRREL,unknown,North
2013-09-05T01:00:28Z,1378342829,2013,1,0,248.042,248.042,75.68,-141.5094,1008.77,-999.00,-5.34,yes,no,yes,3000250713490,IMB,CRREL,unknown,North
2013-09-05T01:59:31Z,1378346371,2013,2,0,248.083,248.083,75.6783,-141.5217,1008.63,-999.00,-6.1,yes,no,yes,3000250713490,IMB,CRREL,unknown,North
2013-09-05T03:00:00Z,1378350000,2013,3,0,248.125,248.125,75.677,-141.5336,1008.77,-999.00,-7.19,yes,no,yes,3000250713490,IMB,CRREL,unknown,North
2013-09-05T04:00:28Z,1378353629,2013,4,0,248.167,248.167,75.676,-141.545,1009.2,-999.00,-7.99,yes,no,yes,3000250713490,IMB,CRREL,unknown,North
2013-09-05T04:59:31Z,1378357171,2013,5,0,248.208,248.208,75.6755,-141.5552,1009.37,-999.00,-9.72,yes,no,yes,3000250713490,IMB,CRREL,unknown,North
2013-09-05T06:00:00Z,1378360800,2013,6,0,248.25,248.25,75.6753,-141.5643,1009.54,-999.00,-10.84,yes,no,yes,3000250713490,IMB,CRREL,unknown,North
2013-09-05T07:00:28Z,1378364429,2013,7,0,248.292,248.292,75.6752,-141.5712,1009.86,-999.00,-11.35,yes,no,yes,3000250713490,IMB,CRREL,unknown,North
2013-09-05T07:59:31Z,1378367971,2013,8,0,248.333,248.333,75.6749,-141.5762,1010.21,-999.00,-11.29,yes,no,yes,3000250713490,IMB,CRREL,unknown,North
2013-09-05T09:00:00Z,1378371600,2013,9,0,248.375,248.375,75.6741,-141.5797,1010.59,-999.00,-10.58,yes,no,yes,3000250713490,IMB,CRREL,unknown,North
2013-09-05T10:00:28Z,1378375229,2013,10,0,248.417,248.417,75.6727,-141.5818,1010.96,-999.00,-7.55,yes,no,yes,3000250713490,IMB,CRREL,unknown,North
2013-09-05T10:59:31Z,1378378771,2013,11,0,248.458,248.458,75.6707,-141.5843,1011.43,-999.00,-7.02,yes,no,yes,3000250713490,IMB,CRREL,unknown,North
2013-09-05T12:00:00Z,1378382400,2013,12,0,248.5,248.5,75.6682,-141.5873,1011.5,-999.00,-6.15,yes,no,yes,3000250713490,IMB,CRREL,unknown,North
2013-09-05T13:00:28Z,1378386029,2013,13,0,248.542,248.542,75.6657,-141.5917,1011.67,-999.00,-5.38,yes,no,yes,3000250713490,IMB,CRREL,unknown,North
2013-09-05T13:59:31Z,1378389571,2013,14,0,248.583,248.583,75.6632,-141.5972,1011.95,-999.00,-4.92,yes,no,yes,3000250713490,IMB,CRREL,unknown,North
2013-09-05T15:00:00Z,1378393200,2013,15,0,248.625,248.625,75.6609,-141.6036,1012.14,-999.00,-4.31,yes,no,yes,3000250713490,IMB,CRREL,unknown,North
2013-09-05T16:00:28Z,1378396829,2013,16,0,248.667,248.667,75.6591,-141.6099,1012.52,-999.00,-3.86,yes,no,yes,3000250713490,IMB,CRREL,unknown,North
2013-09-05T16:59:31Z,1378400371,2013,17,0,248.708,248.708,75.6576,-141.6151,1012.69,-999.00,-3.76,yes,no,yes,3000250713490,IMB,CRREL,unknown,North
2013-09-05T18:00:00Z,1378404000,2013,18,0,248.75,248.75,75.6564,-141.6186,1012.97,-999.00,-3.61,yes,no,yes,3000250713490,IMB,CRREL,unknown,North
2013-09-05T19:00:28Z,1378407629,2013,19,0,248.792,248.792,75.6555,-141.6209,1013.53,-999.00,-3.37,yes,no,yes,3000250713490,IMB,CRREL,unknown,North
2013-09-05T19:59:31Z,1378411171,2013,20,0,248.833,248.833,75.6545,-141.6209,1014.1,-999.00,-3.18,yes,no,yes,3000250713490,IMB,CRREL,unknown,North
2013-09-05T21:00:00Z,1378414800,2013,21,0,248.875,248.875,75.6529,-141.6185,1014.52,-999.00,-2.85,yes,no,yes,3000250713490,IMB,CRREL,unknown,North
2013-09-05T22:00:28Z,1378418429,2013,22,0,248.917,248.917,75.6509,-141.6152,1014.94,-999.00,-2.42,yes,no,yes,3000250713490,IMB,CRREL,unknown,North
2013-09-05T22:59:31Z,1378421971,2013,23,0,248.958,248.958,75.6479,-141.6118,1015.5,-999.00,-2.31,yes,no,yes,3000250713490,IMB,CRREL,unknown,North
2013-09-06T00:00:00Z,1378425600,2013,0,0,249.0,249.0,75.6446,-141.609,1015.78,-999.00,-2.15,yes,no,yes,3000250713490,IMB,CRREL,unknown,North
2013-09-06T01:00:28Z,1378429229,2013,1,0,249.042,249.042,75.6414,-141.6078,1015.92,-999.00,-2.11,yes,no,yes,3000250713490,IMB,CRREL,unknown,North
2013-09-06T01:59:31Z,1378432771,2013,2,0,249.083,249.083,75.6385,-141.6084,1016.09,-999.00,-2.19,yes,no,yes,3000250713490,IMB,CRREL,unknown,North
2013-09-06T03:00:00Z,1378436400,2013,3,0,249.125,249.125,75.6361,-141.6106,1016.34,-999.00,-2.33,yes,no,yes,3000250713490,IMB,CRREL,unknown,North
2013-09-06T04:00:28Z,1378440029,2013,4,0,249.167,249.167,75.6342,-141.6132,1016.65,-999.00,-2.58,yes,no,yes,3000250713490,IMB,CRREL,unknown,North
2013-09-06T04:59:31Z,1378443571,2013,5,0,249.208,249.208,75.6331,-141.6149,1017.04,-999.00,-2.66,yes,no,yes,3000250713490,IMB,CRREL,unknown,North
2013-09-06T06:00:00Z,1378447200,2013,6,0,249.25,249.25,75.6323,-141.6151,1017.32,-999.00,-2.6,yes,no,yes,3000250713490,IMB,CRREL,unknown,North
2013-09-06T07:00:28Z,1378450829,2013,7,0,249.292,249.292,75.632,-141.6133,1017.6,-999.00,-2.73,yes,no,yes,3000250713490,IMB,CRREL,unknown,North
2013-09-06T07:59:31Z,1378454371,2013,8,0,249.333,249.333,75.632,-141.6106,1017.88,-999.00,-2.75,yes,no,yes,3000250713490,IMB,CRREL,unknown,North
2013-09-06T09:00:00Z,1378458000,2013,9,0,249.375,249.375,75.6313,-141.6051,1018.09,-999.00,-3.0,yes,no,yes,3000250713490,IMB,CRREL,unknown,North
2013-09-06T10:00:28Z,1378461629,2013,10,0,249.417,249.417,75.6299,-141.5982,1018.3,-999.00,-3.14,yes,no,yes,3000250713490,IMB,CRREL,unknown,North
2013-09-06T10:59:31Z,1378465171,2013,11,0,249.458,249.458,75.6282,-141.5916,1018.16,-999.00,-3.22,yes,no,yes,3000250713490,IMB,CRREL,unknown,North
2013-09-06T12:00:00Z,1378468800,2013,12,0,249.5,249.5,75.6262,-141.5856,1018.19,-999.00,-3.12,yes,no,yes,3000250713490,IMB,CRREL,unknown,North
2013-09-06T13:00:28Z,1378472429,2013,13,0,249.542,249.542,75.6238,-141.5799,1018.37,-999.00,-3.45,yes,no,yes,3000250713490,IMB,CRREL,unknown,North
2013-09-06T13:59:31Z,1378475971,2013,14,0,249.583,249.583,75.6214,-141.5766,1018.44,-999.00,-3.5,yes,no,yes,3000250713490,IMB,CRREL,unknown,North
2013-09-06T15:00:00Z,1378479600,2013,15,0,249.625,249.625,75.6193,-141.5733,1018.51,-999.00,-3.35,yes,no,yes,3000250713490,IMB,CRREL,unknown,North
2013-09-06T16:00:28Z,1378483229,2013,16,0,249.667,249.667,75.6178,-141.5703,1018.65,-999.00,-3.35,yes,no,yes,3000250713490,IMB,CRREL,unknown,North
2013-09-06T16:59:31Z,1378486771,2013,17,0,249.708,249.708,75.6167,-141.5663,1018.86,-999.00,-3.08,yes,no,yes,3000250713490,IMB,CRREL,unknown,North
2013-09-06T18:00:00Z,1378490400,2013,18,0,249.75,249.75,75.6158,-141.5614,1019.14,-999.00,-3.06,yes,no,yes,3000250713490,IMB,CRREL,unknown,North
2013-09-06T19:00:28Z,1378494029,2013,19,0,249.792,249.792,75.6152,-141.5543,1019.14,-999.00,-2.71,yes,no,yes,3000250713490,IMB,CRREL,unknown,North
2013-09-06T19:59:31Z,1378497571,2013,20,0,249.833,249.833,75.614,-141.5446,1019.28,-999.00,-2.73,yes,no,yes,3000250713490,IMB,CRREL,unknown,North
2013-09-06T21:00:00Z,1378501200,2013,21,0,249.875,249.875,75.6126,-141.5336,1019.42,-999.00,-2.73,yes,no,yes,3000250713490,IMB,CRREL,unknown,North
2013-09-06T22:00:28Z,1378504829,2013,22,0,249.917,249.917,75.6098,-141.5218,1019.56,-999.00,-3.74,yes,no,yes,3000250713490,IMB,CRREL,unknown,North
2013-09-06T22:59:31Z,1378508371,2013,23,0,249.958,249.958,75.6068,-141.5103,1019.63,-999.00,-3.12,yes,no,yes,3000250713490,IMB,CRREL,unknown,North
2013-09-07T00:00:00Z,1378512000,2013,0,0,250.0,250.0,75.603,-141.5008,1019.56,-999.00,-2.67,yes,no,yes,3000250713490,IMB,CRREL,unknown,North
2013-09-07T01:00:28Z,1378515629,2013,1,0,250.042,250.042,75.5991,-141.4946,1019.31,-999.00,-2.95,yes,no,yes,3000250713490,IMB,CRREL,unknown,North
2013-09-07T01:59:31Z,1378519171,2013,2,0,250.083,250.083,75.5953,-141.4917,1019.28,-999.00,-2.93,yes,no,yes,3000250713490,IMB,CRREL,unknown,North
2013-09-07T03:00:00Z,1378522800,2013,3,0,250.125,250.125,75.5921,-141.4924,1019.28,-999.00,-3.18,yes,no,yes,3000250713490,IMB,CRREL,unknown,North
2013-09-07T04:00:28Z,1378526429,2013,4,0,250.167,250.167,75.5894,-141.4951,1019.42,-999.00,-3.49,yes,no,yes,3000250713490,IMB,CRREL,unknown,North
2013-09-07T04:59:31Z,1378529971,2013,5,0,250.208,250.208,75.5875,-141.4973,1019.84,-999.00,-3.68,yes,no,yes,3000250713490,IMB,CRREL,unknown,North
2013-09-07T06:00:00Z,1378533600,2013,6,0,250.25,250.25,75.5862,-141.4998,1019.98,-999.00,-4.08,yes,no,yes,3000250713490,IMB,CRREL,unknown,North
2013-09-07T07:00:28Z,1378537229,2013,7,0,250.292,250.292,75.5852,-141.5013,1020.12,-999.00,-4.7,yes,no,yes,3000250713490,IMB,CRREL,unknown,North
2013-09-07T07:59:31Z,1378540771,2013,8,0,250.333,250.333,75.5845,-141.5008,1020.23,-999.00,-5.24,yes,no,yes,3000250713490,IMB,CRREL,unknown,North
2013-09-07T09:00:00Z,1378544400,2013,9,0,250.375,250.375,75.5839,-141.5005,1020.47,-999.00,-5.46,yes,no,yes,3000250713490,IMB,CRREL,unknown,North
2013-09-07T10:00:28Z,1378548029,2013,10,0,250.417,250.417,75.583,-141.4996,1020.33,-999.00,-5.38,yes,no,yes,3000250713490,IMB,CRREL,unknown,North
2013-09-07T10:59:31Z,1378551571,2013,11,0,250.458,250.458,75.5815,-141.4982,1020.33,-999.00,-5.26,yes,no,yes,3000250713490,IMB,CRREL,unknown,North
2013-09-07T12:00:00Z,1378555200,2013,12,0,250.5,250.5,75.5796,-141.4987,1020.12,-999.00,-5.04,yes,no,yes,3000250713490,IMB,CRREL,unknown,North
2013-09-07T13:00:28Z,1378558829,2013,13,0,250.542,250.542,75.5774,-141.5012,1020.01,-999.00,-5.34,yes,no,yes,3000250713490,IMB,CRREL,unknown,North
2013-09-07T13:59:31Z,1378562371,2013,14,0,250.583,250.583,75.5754,-141.5062,1020.19,-999.00,-6.72,yes,no,yes,3000250713490,IMB,CRREL,unknown,North
2013-09-07T15:00:00Z,1378566000,2013,15,0,250.625,250.625,75.5737,-141.5128,1020.27,-999.00,-7.22,yes,no,yes,3000250713490,IMB,CRREL,unknown,North
2013-09-07T16:00:28Z,1378569629,2013,16,0,250.667,250.667,75.5727,-141.5203,1020.69,-999.00,-6.35,yes,no,yes,3000250713490,IMB,CRREL,unknown,North
2013-09-07T16:59:31Z,1378573171,2013,17,0,250.708,250.708,75.5722,-141.5281,1020.47,-999.00,-6.57,yes,no,yes,3000250713490,IMB,CRREL,unknown,North
2013-09-07T18:00:00Z,1378576800,2013,18,0,250.75,250.75,75.5723,-141.5354,1020.65,-999.00,-5.52,yes,no,yes,3000250713490,IMB,CRREL,unknown,North
2013-09-07T19:00:28Z,1378580429,2013,19,0,250.792,250.792,75.5729,-141.5414,1020.82,-999.00,-5.8,yes,no,yes,3000250713490,IMB,CRREL,unknown,North
2013-09-07T19:59:31Z,1378583971,2013,20,0,250.833,250.833,75.5735,-141.5453,1021.17,-999.00,-5.9,yes,no,yes,3000250713490,IMB,CRREL,unknown,North
2013-09-07T21:00:00Z,1378587600,2013,21,0,250.875,250.875,75.574,-141.5476,1021.28,-999.00,-4.43,yes,no,yes,3000250713490,IMB,CRREL,unknown,North
2013-09-07T22:00:28Z,1378591229,2013,22,0,250.917,250.917,75.5742,-141.549,1021.45,-999.00,-4.88,yes,no,yes,3000250713490,IMB,CRREL,unknown,North
2013-09-07T22:59:31Z,1378594771,2013,23,0,250.958,250.958,75.5739,-141.55,1021.66,-999.00,-3.54,yes,no,yes,3000250713490,IMB,CRREL,unknown,North
2013-09-08T00:00:00Z,1378598400,2013,0,0,251.0,251.0,75.5733,-141.5523,1021.45,-999.00,-5.4,yes,no,yes,3000250713490,IMB,CRREL,unknown,North
2013-09-08T01:00:28Z,1378602029,2013,1,0,251.042,251.042,75.5721,-141.5568,1021.59,-999.00,-4.63,yes,no,yes,3000250713490,IMB,CRREL,unknown,North
2013-09-08T01:59:31Z,1378605571,2013,2,0,251.083,251.083,75.5709,-141.5629,1021.66,-999.00,-4.9,yes,no,yes,3000250713490,IMB,CRREL,unknown,North
2013-09-08T03:00:00Z,1378609200,2013,3,0,251.125,251.125,75.57,-141.5708,1021.66,-999.00,-6.12,yes,no,yes,3000250713490,IMB,CRREL,unknown,North
2013-09-08T04:00:28Z,1378612829,2013,4,0,251.167,251.167,75.5692,-141.5792,1021.8,-999.00,-7.91,yes,no,yes,3000250713490,IMB,CRREL,unknown,North
2013-09-08T04:59:31Z,1378616371,2013,5,0,251.208,251.208,75.5689,-141.5881,1022.09,-999.00,-8.59,yes,no,yes,3000250713490,IMB,CRREL,unknown,North
2013-09-08T06:00:00Z,1378620000,2013,6,0,251.25,251.25,75.569,-141.5956,1021.98,-999.00,-6.79,yes,no,yes,3000250713490,IMB,CRREL,unknown,North
2013-09-08T07:00:28Z,1378623629,2013,7,0,251.292,251.292,75.5694,-141.6027,1022.21,-999.00,-6.52,yes,no,yes,3000250713490,IMB,CRREL,unknown,North
2013-09-08T07:59:31Z,1378627171,2013,8,0,251.333,251.333,75.57,-141.6075,1022.49,-999.00,-8.39,yes,no,yes,3000250713490,IMB,CRREL,unknown,North
2013-09-08T09:00:00Z,1378630800,2013,9,0,251.375,251.375,75.5706,-141.6108,1022.51,-999.00,-8.97,yes,no,yes,3000250713490,IMB,CRREL,unknown,North
2013-09-08T10:00:28Z,1378634429,2013,10,0,251.417,251.417,75.5708,-141.6124,1022.37,-999.00,-10.45,yes,no,yes,3000250713490,IMB,CRREL,unknown,North
2013-09-08T10:59:31Z,1378637971,2013,11,0,251.458,251.458,75.571,-141.6141,1022.2,-999.00,-9.52,yes,no,yes,3000250713490,IMB,CRREL,unknown,North
2013-09-08T12:00:00Z,1378641600,2013,12,0,251.5,251.5,75.5709,-141.6158,1022.23,-999.00,-9.22,yes,no,yes,3000250713490,IMB,CRREL,unknown,North
2013-09-08T13:00:28Z,1378645229,2013,13,0,251.542,251.542,75.5705,-141.6183,1021.95,-999.00,-8.27,yes,no,yes,3000250713490,IMB,CRREL,unknown,North
2013-09-08T13:59:31Z,1378648771,2013,14,0,251.583,251.583,75.57,-141.6228,1021.88,-999.00,-8.85,yes,no,yes,3000250713490,IMB,CRREL,unknown,North
2013-09-08T15:00:00Z,1378652400,2013,15,0,251.625,251.625,75.5694,-141.6285,1021.74,-999.00,-8.67,yes,no,yes,3000250713490,IMB,CRREL,unknown,North
2013-09-08T16:00:28Z,1378656029,2013,16,0,251.667,251.667,75.569,-141.6349,1021.6,-999.00,-7.17,yes,no,yes,3000250713490,IMB,CRREL,unknown,North
2013-09-08T16:59:31Z,1378659571,2013,17,0,251.708,251.708,75.5689,-141.6418,1021.46,-999.00,-6.46,yes,no,yes,3000250713490,IMB,CRREL,unknown,North
2013-09-08T18:00:00Z,1378663200,2013,18,0,251.75,251.75,75.569,-141.6484,1021.54,-999.00,-7.59,yes,no,yes,3000250713490,IMB,CRREL,unknown,North
2013-09-08T19:00:28Z,1378666829,2013,19,0,251.792,251.792,75.5694,-141.6544,1021.31,-999.00,-5.85,yes,no,yes,3000250713490,IMB,CRREL,unknown,North
2013-09-08T19:59:31Z,1378670371,2013,20,0,251.833,251.833,75.57,-141.6594,1021.17,-999.00,-5.75,yes,no,yes,3000250713490,IMB,CRREL,unknown,North
2013-09-08T21:00:00Z,1378674000,2013,21,0,251.875,251.875,75.5708,-141.6626,1020.96,-999.00,-4.93,yes,no,yes,3000250713490,IMB,CRREL,unknown,North
2013-09-08T22:00:28Z,1378677629,2013,22,0,251.917,251.917,75.5713,-141.6671,1020.96,-999.00,-4.63,yes,no,yes,3000250713490,IMB,CRREL,unknown,North
2013-09-08T22:59:31Z,1378681171,2013,23,0,251.958,251.958,75.5718,-141.6716,1020.75,-999.00,-3.8,yes,no,yes,3000250713490,IMB,CRREL,unknown,North
2013-09-09T00:00:00Z,1378684800,2013,0,0,252.0,252.0,75.5721,-141.6779,1020.26,-999.00,-3.74,yes,no,yes,3000250713490,IMB,CRREL,unknown,North
2013-09-09T01:00:28Z,1378688429,2013,1,0,252.042,252.042,75.5723,-141.6857,1020.19,-999.00,-3.84,yes,no,yes,3000250713490,IMB,CRREL,unknown,North
2013-09-09T01:59:31Z,1378691971,2013,2,0,252.083,252.083,75.5725,-141.6947,1020.37,-999.00,-4.57,yes,no,yes,3000250713490,IMB,CRREL,unknown,North
2013-09-09T03:00:00Z,1378695600,2013,3,0,252.125,252.125,75.5728,-141.7037,1020.4,-999.00,-6.4,yes,no,yes,3000250713490,IMB,CRREL,unknown,North
2013-09-09T04:00:28Z,1378699229,2013,4,0,252.167,252.167,75.5733,-141.7129,1020.41,-999.00,-7.19,yes,no,yes,3000250713490,IMB,CRREL,unknown,North
2013-09-09T04:59:31Z,1378702771,2013,5,0,252.208,252.208,75.5739,-141.7191,1020.96,-999.00,-9.73,yes,no,yes,3000250713490,IMB,CRREL,unknown,North
2013-09-09T06:00:00Z,1378706400,2013,6,0,252.25,252.25,75.5746,-141.7244,1021.18,-999.00,-9.42,yes,no,yes,3000250713490,IMB,CRREL,unknown,North
2013-09-09T07:00:28Z,1378710029,2013,7,0,252.292,252.292,75.5755,-141.7277,1020.83,-999.00,-11.35,yes,no,yes,3000250713490,IMB,CRREL,unknown,North
2013-09-09T07:59:31Z,1378713571,2013,8,0,252.333,252.333,75.5761,-141.7296,1021.23,-999.00,-11.48,yes,no,yes,3000250713490,IMB,CRREL,unknown,North
2013-09-09T09:00:00Z,1378717200,2013,9,0,252.375,252.375,75.5766,-141.7319,1020.9,-999.00,-12.27,yes,no,yes,3000250713490,IMB,CRREL,unknown,North
2013-09-09T10:00:28Z,1378720829,2013,10,0,252.417,252.417,75.577,-141.7346,1020.9,-999.00,-12.28,yes,no,yes,3000250713490,IMB,CRREL,unknown,North
2013-09-09T10:59:31Z,1378724371,2013,11,0,252.458,252.458,75.5774,-141.7377,1020.97,-999.00,-12.71,yes,no,yes,3000250713490,IMB,CRREL,unknown,North
2013-09-09T12:00:00Z,1378728000,2013,12,0,252.5,252.5,75.5779,-141.7411,1021.11,-999.00,-11.8,yes,no,yes,3000250713490,IMB,CRREL,unknown,North
2013-09-09T13:00:28Z,1378731629,2013,13,0,252.542,252.542,75.5781,-141.7447,1021.25,-999.00,-10.36,yes,no,yes,3000250713490,IMB,CRREL,unknown,North
2013-09-09T13:59:31Z,1378735171,2013,14,0,252.583,252.583,75.5784,-141.7493,1021.25,-999.00,-11.27,yes,no,yes,3000250713490,IMB,CRREL,unknown,North
2013-09-09T15:00:00Z,1378738800,2013,15,0,252.625,252.625,75.5785,-141.7555,1021.21,-999.00,-10.06,yes,no,yes,3000250713490,IMB,CRREL,unknown,North
2013-09-09T16:00:28Z,1378742429,2013,16,0,252.667,252.667,75.5789,-141.7628,1021.25,-999.00,-10.27,yes,no,yes,3000250713490,IMB,CRREL,unknown,North
2013-09-09T16:59:31Z,1378745971,2013,17,0,252.708,252.708,75.5796,-141.7712,1021.21,-999.00,-9.4,yes,no,yes,3000250713490,IMB,CRREL,unknown,North
2013-09-09T18:00:00Z,1378749600,2013,18,0,252.75,252.75,75.5805,-141.7794,1021.27,-999.00,-8.31,yes,no,yes,3000250713490,IMB,CRREL,unknown,North
2013-09-09T19:00:28Z,1378753229,2013,19,0,252.792,252.792,75.5816,-141.7876,1021.32,-999.00,-8.33,yes,no,yes,3000250713490,IMB,CRREL,unknown,North
2013-09-09T19:59:31Z,1378756771,2013,20,0,252.833,252.833,75.5833,-141.7962,1021.18,-999.00,-8.2,yes,no,yes,3000250713490,IMB,CRREL,unknown,North
2013-09-09T21:00:00Z,1378760400,2013,21,0,252.875,252.875,75.5855,-141.8047,1021.18,-999.00,-7.48,yes,no,yes,3000250713490,IMB,CRREL,unknown,North
2013-09-09T22:00:28Z,1378764029,2013,22,0,252.917,252.917,75.588,-141.8133,1021.38,-999.00,-6.9,yes,no,yes,3000250713490,IMB,CRREL,unknown,North
2013-09-09T22:59:31Z,1378767571,2013,23,0,252.958,252.958,75.5907,-141.8208,1021.29,-999.00,-6.62,yes,no,yes,3000250713490,IMB,CRREL,unknown,North
2013-09-10T00:00:00Z,1378771200,2013,0,0,253.0,253.0,75.5935,-141.8266,1020.98,-999.00,-6.74,yes,no,yes,3000250713490,IMB,CRREL,unknown,North
2013-09-10T01:00:28Z,1378774829,2013,1,0,253.042,253.042,75.5962,-141.8324,1020.78,-999.00,-6.9,yes,no,yes,3000250713490,IMB,CRREL,unknown,North
2013-09-10T01:59:31Z,1378778371,2013,2,0,253.083,253.083,75.5988,-141.8383,1020.75,-999.00,-7.26,yes,no,yes,3000250713490,IMB,CRREL,unknown,North
2013-09-10T03:00:00Z,1378782000,2013,3,0,253.125,253.125,75.6012,-141.8438,1020.72,-999.00,-8.0,yes,no,yes,3000250713490,IMB,CRREL,unknown,North
2013-09-10T04:00:28Z,1378785629,2013,4,0,253.167,253.167,75.6033,-141.848,1020.37,-999.00,-8.51,yes,no,yes,3000250713490,IMB,CRREL,unknown,North
2013-09-10T04:59:31Z,1378789171,2013,5,0,253.208,253.208,75.6054,-141.8499,1020.4,-999.00,-9.54,yes,no,yes,3000250713490,IMB,CRREL,unknown,North
2013-09-10T06:00:00Z,1378792800,2013,6,0,253.25,253.25,75.6076,-141.8523,1020.52,-999.00,-9.37,yes,no,yes,3000250713490,IMB,CRREL,unknown,North
2013-09-10T07:00:28Z,1378796429,2013,7,0,253.292,253.292,75.6101,-141.8562,1020.42,-999.00,-9.39,yes,no,yes,3000250713490,IMB,CRREL,unknown,North
2013-09-10T07:59:31Z,1378799971,2013,8,0,253.333,253.333,75.6128,-141.8611,1020.33,-999.00,-10.0,yes,no,yes,3000250713490,IMB,CRREL,unknown,North
2013-09-10T09:00:00Z,1378803600,2013,9,0,253.375,253.375,75.6156,-141.8655,1020.26,-999.00,-10.46,yes,no,yes,3000250713490,IMB,CRREL,unknown,North
2013-09-10T10:00:28Z,1378807229,2013,10,0,253.417,253.417,75.6185,-141.8698,1020.3,-999.00,-11.24,yes,no,yes,3000250713490,IMB,CRREL,unknown,North
2013-09-10T10:59:31Z,1378810771,2013,11,0,253.458,253.458,75.6215,-141.8719,1020.13,-999.00,-11.53,yes,no,yes,3000250713490,IMB,CRREL,unknown,North
2013-09-10T12:00:00Z,1378814400,2013,12,0,253.5,253.5,75.6241,-141.8737,1019.99,-999.00,-12.42,yes,no,yes,3000250713490,IMB,CRREL,unknown,North
2013-09-10T13:00:28Z,1378818029,2013,13,0,253.542,253.542,75.6259,-141.8745,1019.78,-999.00,-12.77,yes,no,yes,3000250713490,IMB,CRREL,unknown,North
2013-09-10T13:59:31Z,1378821571,2013,14,0,253.583,253.583,75.6273,-141.8772,1019.64,-999.00,-12.64,yes,no,yes,3000250713490,IMB,CRREL,unknown,North
2013-09-10T15:00:00Z,1378825200,2013,15,0,253.625,253.625,75.6285,-141.8814,1019.43,-999.00,-12.5,yes,no,yes,3000250713490,IMB,CRREL,unknown,North
2013-09-10T16:00:28Z,1378828829,2013,16,0,253.667,253.667,75.6295,-141.8882,1019.15,-999.00,-11.33,yes,no,yes,3000250713490,IMB,CRREL,unknown,North
2013-09-10T16:59:31Z,1378832371,2013,17,0,253.708,253.708,75.631,-141.8955,1019.08,-999.00,-10.66,yes,no,yes,3000250713490,IMB,CRREL,unknown,North
2013-09-10T18:00:00Z,1378836000,2013,18,0,253.75,253.75,75.6326,-141.9062,1018.94,-999.00,-9.37,yes,no,yes,3000250713490,IMB,CRREL,unknown,North
2013-09-10T19:00:28Z,1378839629,2013,19,0,253.792,253.792,75.635,-141.9192,1018.78,-999.00,-8.67,yes,no,yes,3000250713490,IMB,CRREL,unknown,North
2013-09-10T19:59:31Z,1378843171,2013,20,0,253.833,253.833,75.6378,-141.9317,1018.66,-999.00,-7.11,yes,no,yes,3000250713490,IMB,CRREL,unknown,North
2013-09-10T21:00:00Z,1378846800,2013,21,0,253.875,253.875,75.6411,-141.9435,1018.44,-999.00,-5.74,yes,no,yes,3000250713490,IMB,CRREL,unknown,North
2013-09-10T22:00:28Z,1378850429,2013,22,0,253.917,253.917,75.6446,-141.9524,1018.51,-999.00,-6.12,yes,no,yes,3000250713490,IMB,CRREL,unknown,North
2013-09-10T22:59:31Z,1378853971,2013,23,0,253.958,253.958,75.6482,-141.9594,1018.36,-999.00,-7.23,yes,no,yes,3000250713490,IMB,CRREL,unknown,North
2013-09-11T00:00:00Z,1378857600,2013,0,0,254.0,254.0,75.6515,-141.9645,1018.16,-999.00,-5.9,yes,no,yes,3000250713490,IMB,CRREL,unknown,North
2013-09-11T01:00:28Z,1378861229,2013,1,0,254.042,254.042,75.6548,-141.9698,1018.14,-999.00,-6.61,yes,no,yes,3000250713490,IMB,CRREL,unknown,North
2013-09-11T01:59:31Z,1378864771,2013,2,0,254.083,254.083,75.6574,-141.9754,1017.81,-999.00,-6.89,yes,no,yes,3000250713490,IMB,CRREL,unknown,North
2013-09-11T03:00:00Z,1378868400,2013,3,0,254.125,254.125,75.6592,-141.9806,1017.53,-999.00,-6.66,yes,no,yes,3000250713490,IMB,CRREL,unknown,North
2013-09-11T04:00:28Z,1378872029,2013,4,0,254.167,254.167,75.6609,-141.9872,1017.46,-999.00,-5.8,yes,no,yes,3000250713490,IMB,CRREL,unknown,North
2013-09-11T04:59:31Z,1378875571,2013,5,0,254.208,254.208,75.6632,-141.9959,1017.38,-999.00,-5.81,yes,no,yes,3000250713490,IMB,CRREL,unknown,North
2013-09-11T06:00:00Z,1378879200,2013,6,0,254.25,254.25,75.6661,-142.0056,1017.38,-999.00,-6.15,yes,no,yes,3000250713490,IMB,CRREL,unknown,North
2013-09-11T07:00:28Z,1378882829,2013,7,0,254.292,254.292,75.6696,-142.0161,1017.01,-999.00,-4.88,yes,no,yes,3000250713490,IMB,CRREL,unknown,North
2013-09-11T07:59:31Z,1378886371,2013,8,0,254.333,254.333,75.6745,-142.0286,1017.19,-999.00,-4.77,yes,no,yes,3000250713490,IMB,CRREL,unknown,North
2013-09-11T09:00:00Z,1378890000,2013,9,0,254.375,254.375,75.6794,-142.0385,1017.4,-999.00,-5.09,yes,no,yes,3000250713490,IMB,CRREL,unknown,North
2013-09-11T10:00:28Z,1378893629,2013,10,0,254.417,254.417,75.6843,-142.0455,1017.41,-999.00,-5.08,yes,no,yes,3000250713490,IMB,CRREL,unknown,North
2013-09-11T10:59:31Z,1378897171,2013,11,0,254.458,254.458,75.6888,-142.0508,1017.18,-999.00,-4.96,yes,no,yes,3000250713490,IMB,CRREL,unknown,North